Time,TemperatureF,DewpointF,PressureIn,WindDirection,WindDirectionDegrees,WindSpeedMPH,WindSpeedGustMPH,Humidity,HourlyPrecipIn,Conditions,Clouds,dailyrainin,SolarRadiationWatts/m^2,SoftwareType,DateUTC
2013-01-10 00:29:00,41.2,29.2,30.02,West,270,0.0,13.0,62,0.00,CLR,,0.00,0.0,WeatherDisplay:10.37,2013-01-10 05:29:00,
2013-01-10 00:59:00,41.0,29.4,30.02,WSW,250,1.0,8.0,63,0.00,CLR,,0.00,0.0,WeatherDisplay:10.37,2013-01-10 05:59:00,
2013-01-10 01:29:00,40.8,29.6,30.03,SW,235,2.0,12.0,64,0.00,CLR,,0.00,0.0,WeatherDisplay:10.37,2013-01-10 06:29:00,
2013-01-10 01:59:00,41.4,30.1,30.03,WSW,250,3.0,12.0,64,0.00,CLR,,0.00,0.0,WeatherDisplay:10.37,2013-01-10 06:59:00,
2013-01-10 02:29:00,42.0,30.7,30.06,WSW,256,7.0,20.0,64,0.00,CLR,,0.00,0.0,WeatherDisplay:10.37,2013-01-10 07:29:00,
2013-01-10 02:59:00,41.0,29.7,30.08,WNW,284,9.0,20.0,64,0.00,CLR,,0.00,0.0,WeatherDisplay:10.37,2013-01-10 07:59:00,
2013-01-10 03:29:00,40.6,29.0,30.08,West,273,5.0,15.0,63,0.00,CLR,,0.00,0.0,WeatherDisplay:10.37,2013-01-10 08:29:00,
2013-01-10 03:59:00,40.2,29.4,30.11,WNW,293,2.0,16.0,65,0.00,CLR,,0.00,0.0,WeatherDisplay:10.37,2013-01-10 08:59:00,
2013-01-10 04:29:00,40.1,28.5,30.14,West,276,5.0,20.0,63,0.00,CLR,,0.00,0.0,WeatherDisplay:10.37,2013-01-10 09:29:00,
2013-01-10 04:59:00,40.1,28.5,30.15,West,267,7.0,21.0,63,0.00,CLR,,0.00,0.0,WeatherDisplay:10.37,2013-01-10 09:59:00,
2013-01-10 05:29:00,39.8,28.2,30.17,WNW,290,5.0,16.0,63,0.00,CLR,,0.00,0.0,WeatherDisplay:10.37,2013-01-10 10:29:00,
2013-01-10 05:59:00,39.6,28.0,30.18,West,280,6.0,17.0,63,0.00,CLR,,0.00,0.0,WeatherDisplay:10.37,2013-01-10 10:59:00,
2013-01-10 06:29:00,39.2,27.3,30.19,West,276,7.0,17.0,62,0.00,CLR,,0.00,0.0,WeatherDisplay:10.37,2013-01-10 11:29:00,
2013-01-10 06:59:00,38.7,26.8,30.22,West,278,2.0,12.0,62,0.00,OVC,,0.00,0.0,WeatherDisplay:10.37,2013-01-10 11:59:00,
2013-01-10 07:29:00,38.2,26.7,30.24,West,266,3.0,13.0,63,0.00,SCT,,0.00,12.0,WeatherDisplay:10.37,2013-01-10 12:29:00,
2013-01-10 07:59:00,38.4,26.5,30.25,West,278,6.0,12.0,62,0.00,FEW,,0.00,67.0,WeatherDisplay:10.37,2013-01-10 12:59:00,
2013-01-10 08:29:00,39.1,26.0,30.27,WNW,287,5.0,14.0,59,0.00,CLR,,0.00,163.0,WeatherDisplay:10.37,2013-01-10 13:29:00,
2013-01-10 08:59:00,39.8,26.2,30.29,West,277,6.0,12.0,58,0.00,CLR,,0.00,229.0,WeatherDisplay:10.37,2013-01-10 13:59:00,
2013-01-10 09:29:00,40.4,26.4,30.31,WNW,289,5.0,13.0,57,0.00,CLR,,0.00,292.0,WeatherDisplay:10.37,2013-01-10 14:29:00,
2013-01-10 09:59:00,41.1,26.6,30.31,West,275,6.0,20.0,56,0.00,CLR,,0.00,343.0,WeatherDisplay:10.37,2013-01-10 14:59:00,
2013-01-10 10:29:00,41.4,26.8,30.31,West,278,3.0,20.0,56,0.00,CLR,,0.00,383.0,WeatherDisplay:10.37,2013-01-10 15:29:00,
2013-01-10 10:59:00,42.2,27.2,30.32,WNW,284,2.0,15.0,55,0.00,CLR,,0.00,415.0,WeatherDisplay:10.37,2013-01-10 15:59:00,
2013-01-10 11:29:00,42.2,27.2,30.31,WNW,288,3.0,12.0,55,0.00,CLR,,0.00,434.0,WeatherDisplay:10.37,2013-01-10 16:29:00,
2013-01-10 11:59:00,42.7,27.6,30.31,WNW,296,6.0,16.0,55,0.00,CLR,,0.00,443.0,WeatherDisplay:10.37,2013-01-10 16:59:00,
2013-01-10 12:29:00,43.1,27.1,30.30,West,275,5.0,17.0,53,0.00,CLR,,0.00,436.0,WeatherDisplay:10.37,2013-01-10 17:29:00,
2013-01-10 12:59:00,43.6,27.6,30.31,NW,310,6.0,16.0,53,0.00,CLR,,0.00,417.0,WeatherDisplay:10.37,2013-01-10 17:59:00,
2013-01-10 13:29:00,43.8,27.8,30.32,WNW,292,1.0,16.0,53,0.00,CLR,,0.00,383.0,WeatherDisplay:10.37,2013-01-10 18:29:00,
2013-01-10 13:59:00,44.2,27.6,30.33,WNW,298,5.0,15.0,52,0.00,FEW,,0.00,229.0,WeatherDisplay:10.37,2013-01-10 18:59:00,
2013-01-10 14:29:00,43.8,27.3,30.35,WNW,296,5.0,13.0,52,0.00,FEW,,0.00,253.0,WeatherDisplay:10.37,2013-01-10 19:29:00,
2013-01-10 14:59:00,43.4,27.8,30.37,NW,305,1.0,16.0,54,0.00,BKN,,0.00,44.0,WeatherDisplay:10.37,2013-01-10 19:59:00,
2013-01-10 15:29:00,42.8,27.3,30.37,WNW,296,3.0,8.0,54,0.00,BKN,,0.00,25.0,WeatherDisplay:10.37,2013-01-10 20:29:00,
2013-01-10 15:59:00,42.1,26.6,30.39,NW,309,1.0,12.0,54,0.00,BKN,,0.00,12.0,WeatherDisplay:10.37,2013-01-10 20:59:00,
2013-01-10 16:29:00,40.9,26.8,30.40,NW,310,3.0,10.0,57,0.00,OVC,,0.00,5.0,WeatherDisplay:10.37,2013-01-10 21:29:00,
2013-01-10 16:59:00,40.0,26.4,30.43,West,281,3.0,9.0,58,0.00,CLR,,0.00,0.0,WeatherDisplay:10.37,2013-01-10 21:59:00,
2013-01-10 17:29:00,39.0,26.3,30.44,NNW,329,0.0,10.0,60,0.00,CLR,,0.00,0.0,WeatherDisplay:10.37,2013-01-10 22:29:00,
2013-01-10 17:59:00,37.4,25.9,30.44,WNW,294,1.0,6.0,63,0.00,CLR,,0.00,0.0,WeatherDisplay:10.37,2013-01-10 22:59:00,
2013-01-10 18:29:00,37.7,26.2,30.45,WNW,301,2.0,12.0,63,0.00,CLR,,0.00,0.0,WeatherDisplay:10.37,2013-01-10 23:29:00,
2013-01-10 18:59:00,37.7,26.2,30.44,WNW,295,2.0,13.0,63,0.00,CLR,,0.00,0.0,WeatherDisplay:10.37,2013-01-10 23:59:00,
2013-01-10 19:29:00,36.8,26.1,30.46,WNW,286,2.0,7.0,65,0.00,CLR,,0.00,0.0,WeatherDisplay:10.37,2013-01-11 00:29:00,
2013-01-10 19:59:00,35.8,25.9,30.47,NW,319,1.0,9.0,67,0.00,CLR,,0.00,0.0,WeatherDisplay:10.37,2013-01-11 00:59:00,
2013-01-10 20:29:00,34.3,25.5,30.49,NNW,345,1.0,5.0,70,0.00,CLR,,0.00,0.0,WeatherDisplay:10.37,2013-01-11 01:29:00,
2013-01-10 21:00:00,33.0,25.6,30.49,NW,316,0.0,3.0,74,0.00,CLR,,0.00,0.0,WeatherDisplay:10.37,2013-01-11 02:00:00,
2013-01-10 21:30:00,32.6,25.3,30.51,NW,325,0.0,3.0,74,0.00,CLR,,0.00,0.0,WeatherDisplay:10.37,2013-01-11 02:30:00,
2013-01-10 22:00:00,30.9,24.2,30.52,NW,325,0.0,1.0,76,0.00,CLR,,0.00,0.0,WeatherDisplay:10.37,2013-01-11 03:00:00,
2013-01-10 22:30:00,29.4,24.9,30.52,NW,325,0.0,1.0,83,0.00,CLR,,0.00,0.0,WeatherDisplay:10.37,2013-01-11 03:30:00,
2013-01-10 23:00:00,28.7,25.0,30.53,NW,325,0.0,1.0,86,0.00,CLR,,0.00,0.0,WeatherDisplay:10.37,2013-01-11 04:00:00,
2013-01-10 23:30:00,27.9,24.5,30.53,NW,325,0.0,1.0,87,0.00,CLR,,0.00,0.0,WeatherDisplay:10.37,2013-01-11 04:30:00,